Date String (YYYY-MM-DD hh:mm:ss) UTC,Instrument flags,absolute air pressure of the measurement (hPa),sample flow rate (lpm),inlet stack bypass flow (lpm),air temperature of the measurement (°C),ambient temperature measured by the external sensor (°C),aerosol sample conditioner tube jacket temperature (°C),OPC LED temperature (°C),internal box temperature (°C),relative humidity of the measurement (%),span deviation,mass concentration of particles derived from Lorenz-Mie calculation of OPC scattering (μg/m³),mass concentration of particles derived from Lorenz-Mie calculation of OPC scattering (μg/m³),mass concentration of particles derived from Lorenz-Mie calculation of OPC scattering (μg/m³)
DateTimeUTC,F1_M11,P_M11,Q1_M11,Q2_M11,T1_M11,T2_M11,T3_M11,T4_M11,T5_M11,U1_M11,ZSPAN_M11,X0_M11,X2_M11,X1_M11
2024-02-28 22:00:00,SystemResetWarning,0828.3,4.99,000.00,021.1,020.4,000.0,029.2,022.7,07.5,0000.0,0008.71,0003.47,0001.55
2024-02-28 22:01:00,SystemResetWarning,0828.4,5.00,000.00,021.1,020.4,000.0,029.2,022.7,08.4,0000.0,0008.65,0003.46,0001.55
2024-02-28 22:02:00,SystemResetWarning,0828.4,5.00,000.00,021.1,020.4,000.0,029.2,022.7,08.8,0000.0,0008.59,0003.46,0001.54
2024-02-28 22:03:00,SystemResetWarning,0828.4,5.00,000.00,021.1,020.4,000.0,029.3,022.7,08.9,0000.0,0008.90,0003.48,0001.55
2024-02-28 22:04:00,SystemResetWarning,0828.5,5.00,000.00,021.1,020.4,000.0,029.3,022.7,08.8,0000.0,0008.89,0003.47,0001.55
2024-02-28 22:05:00,SystemResetWarning,0828.4,4.99,000.00,021.1,020.4,000.0,029.3,022.8,08.2,0000.0,0008.75,0003.49,0001.55
2024-02-28 22:06:00,SystemResetWarning,0828.4,5.00,000.00,021.1,020.5,000.0,029.3,022.8,07.4,0000.0,0009.06,0003.46,0001.55
2024-02-28 22:07:00,SystemResetWarning,0828.4,5.00,000.00,021.1,020.5,000.0,029.3,022.8,07.1,0000.0,0008.99,0003.44,0001.56
2024-02-28 22:08:00,SystemResetWarning,0828.4,4.99,000.00,021.1,020.5,000.0,029.3,022.9,07.0,0000.0,0008.79,0003.41,0001.56
2024-02-28 22:09:00,SystemResetWarning,0828.4,5.00,000.00,021.1,020.5,000.0,029.3,022.8,07.1,0000.0,0008.84,0003.44,0001.57
2024-02-28 22:10:00,SystemResetWarning,0828.4,5.00,000.00,021.2,020.5,000.0,029.3,022.8,07.1,0000.0,0008.69,0003.43,0001.60
2024-02-28 22:11:00,SystemResetWarning,0828.3,5.00,000.00,021.2,020.5,000.0,029.3,022.8,07.2,0000.0,0008.45,0003.41,0001.60
2024-02-28 22:12:00,SystemResetWarning,0828.3,5.00,000.00,021.2,020.5,000.0,029.3,022.8,07.4,0000.0,0008.34,0003.41,0001.59
2024-02-28 22:13:00,SystemResetWarning,0828.4,5.01,000.00,021.2,020.5,000.0,029.3,022.8,07.3,0000.0,0008.39,0003.44,0001.58
2024-02-28 22:14:00,SystemResetWarning,0828.4,5.01,000.00,021.2,020.6,000.0,029.3,022.8,07.1,0000.0,0008.25,0003.48,0001.62
2024-02-28 22:15:00,SystemResetWarning,0828.4,5.00,000.00,021.2,020.6,000.0,029.3,022.9,07.1,0000.0,0008.31,0003.48,0001.66
2024-02-28 22:16:00,SystemResetWarning,0828.3,4.99,000.00,021.2,020.6,000.0,029.4,022.9,07.3,0000.0,0008.38,0003.48,0001.71
2024-02-28 22:17:00,SystemResetWarning,0828.3,4.99,000.00,021.2,020.6,000.0,029.4,022.9,07.4,0000.0,0008.34,0003.52,0001.75
2024-02-28 22:18:00,SystemResetWarning,0828.3,4.99,000.00,021.2,020.6,000.0,029.4,022.9,07.1,0000.0,0009.19,0003.58,0001.78
2024-02-28 22:19:00,SystemResetWarning,0828.3,5.01,000.00,021.3,020.6,000.0,029.4,022.9,07.0,0000.0,0009.58,0003.62,0001.77
2024-02-28 22:20:00,SystemResetWarning,0828.3,5.00,000.00,021.3,020.6,000.0,029.4,022.9,07.1,0000.0,0009.73,0003.61,0001.74
2024-02-28 22:21:00,SystemResetWarning,0828.3,4.99,000.00,021.3,020.6,000.0,029.4,022.9,07.3,0000.0,0009.85,0003.62,0001.71
2024-02-28 22:22:00,SystemResetWarning,0828.3,4.99,000.00,021.3,020.6,000.0,029.4,023.0,07.4,0000.0,0010.20,0003.66,0001.72
2024-02-28 22:23:00,SystemResetWarning,0828.2,4.99,000.00,021.3,020.6,000.0,029.4,022.9,07.3,0000.0,0010.54,0003.66,0001.72
2024-02-28 22:24:00,SystemResetWarning,0828.2,5.01,000.00,021.3,020.6,000.0,029.4,023.0,07.3,0000.0,0010.85,0003.64,0001.71
2024-02-28 22:25:00,SystemResetWarning,0828.2,5.01,000.00,021.3,020.6,000.0,029.5,023.0,07.4,0000.0,0010.69,0003.59,0001.67
2024-02-28 22:26:00,SystemResetWarning,0828.2,5.01,000.00,021.3,020.6,000.0,029.5,023.0,07.2,0000.0,0010.69,0003.61,0001.63
2024-02-28 22:27:00,SystemResetWarning,0828.1,4.99,000.00,021.3,020.6,000.0,029.5,023.0,07.3,0000.0,0010.58,0003.59,0001.58
2024-02-28 22:28:00,SystemResetWarning,0828.1,4.99,000.00,021.3,020.6,000.0,029.5,023.0,07.3,0000.0,0010.27,0003.56,0001.53
2024-02-28 22:29:00,SystemResetWarning,0828.2,5.00,000.00,021.3,020.6,000.0,029.5,023.0,07.2,0000.0,0009.59,0003.53,0001.49
2024-02-28 22:30:00,SystemResetWarning,0828.1,5.00,000.00,021.3,020.7,000.0,029.5,023.0,07.4,0000.0,0009.34,0003.52,0001.49
2024-02-28 22:31:00,SystemResetWarning,0828.1,5.00,000.00,021.3,020.7,000.0,029.5,023.0,07.2,0000.0,0009.11,0003.50,0001.51
2024-02-28 22:32:00,SystemResetWarning,0827.9,5.00,000.00,021.3,020.7,000.0,029.5,023.0,07.2,0000.0,0009.02,0003.47,0001.53
2024-02-28 22:33:00,SystemResetWarning,0828.1,5.01,000.00,021.3,020.7,000.0,029.5,023.0,07.1,0000.0,0008.89,0003.48,0001.54
2024-02-28 22:34:00,SystemResetWarning,0828.0,4.99,000.00,021.3,020.7,000.0,029.5,023.0,07.4,0000.0,0008.67,0003.53,0001.55
2024-02-28 22:35:00,SystemResetWarning,0827.8,4.99,000.00,021.3,020.7,000.0,029.5,023.0,07.3,0000.0,0008.37,0003.55,0001.56
2024-02-28 22:36:00,SystemResetWarning,0827.9,5.00,000.00,021.4,020.7,000.0,029.5,023.0,07.2,0000.0,0008.61,0003.60,0001.58
2024-02-28 22:37:00,SystemResetWarning,0827.7,5.00,000.00,021.4,020.7,000.0,029.5,023.1,07.3,0000.0,0008.47,0003.56,0001.56
2024-02-28 22:38:00,SystemResetWarning,0827.8,5.00,000.00,021.4,020.7,000.0,029.5,023.1,07.2,0000.0,0008.38,0003.55,0001.55
2024-02-28 22:39:00,SystemResetWarning,0827.6,5.01,000.00,021.4,020.7,000.0,029.5,023.1,07.3,0000.0,0008.39,0003.53,0001.55
2024-02-28 22:40:00,SystemResetWarning,0827.7,5.00,000.00,021.4,020.7,000.0,029.6,023.1,07.2,0000.0,0008.43,0003.53,0001.55
2024-02-28 22:41:00,SystemResetWarning,0827.8,5.01,000.00,021.4,020.7,000.0,029.6,023.1,07.2,0000.0,0008.34,0003.52,0001.52
2024-02-28 22:42:00,SystemResetWarning,0827.7,5.00,000.00,021.4,020.7,000.0,029.6,023.1,07.2,0000.0,0008.42,0003.52,0001.52
2024-02-28 22:43:00,SystemResetWarning,0827.7,4.99,000.00,021.4,020.7,000.0,029.6,023.1,07.4,0000.0,0008.77,0003.55,0001.52
2024-02-28 22:44:00,SystemResetWarning,0827.7,4.99,000.00,021.4,020.7,000.0,029.6,023.1,07.2,0000.0,0009.28,0003.52,0001.51
2024-02-28 22:45:00,SystemResetWarning,0827.7,5.01,000.00,021.4,020.8,000.0,029.6,023.1,07.3,0000.0,0009.11,0003.45,0001.50
2024-02-28 22:46:00,SystemResetWarning,0827.8,5.00,000.00,021.4,020.8,000.0,029.6,023.2,07.4,0000.0,0009.08,0003.43,0001.48
2024-02-28 22:47:00,SystemResetWarning,0827.7,5.00,000.00,021.4,020.8,000.0,029.6,023.2,07.2,0000.0,0009.18,0003.39,0001.47
2024-02-28 22:48:00,SystemResetWarning,0827.7,5.00,000.00,021.5,020.8,000.0,029.6,023.2,07.2,0000.0,0009.25,0003.42,0001.47
2024-02-28 22:49:00,SystemResetWarning,0827.8,4.99,000.00,021.5,020.8,000.0,029.6,023.2,07.1,0000.0,0009.25,0003.40,0001.48
2024-02-28 22:50:00,SystemResetWarning,0827.6,4.99,000.00,021.5,020.8,000.0,029.6,023.2,07.1,0000.0,0009.29,0003.41,0001.49
2024-02-28 22:51:00,SystemResetWarning,0827.7,5.00,000.00,021.5,020.8,000.0,029.6,023.2,07.0,0000.0,0009.27,0003.42,0001.48
2024-02-28 22:52:00,SystemResetWarning,0827.7,5.01,000.00,021.5,020.8,000.0,029.6,023.2,07.1,0000.0,0009.14,0003.38,0001.48
2024-02-28 22:53:00,SystemResetWarning,0827.7,5.00,000.00,021.5,020.8,000.0,029.6,023.2,07.0,0000.0,0009.41,0003.35,0001.48
2024-02-28 22:54:00,SystemResetWarning,0827.7,5.01,000.00,021.5,020.8,000.0,029.6,023.2,07.0,0000.0,0009.84,0003.33,0001.47
2024-02-28 22:55:00,SystemResetWarning,0827.7,5.00,000.00,021.5,020.8,000.0,029.6,023.2,07.1,0000.0,0008.94,0003.31,0001.47
2024-02-28 22:56:00,SystemResetWarning,0827.7,4.99,000.00,021.5,020.8,000.0,029.6,023.2,07.1,0000.0,0008.96,0003.32,0001.45
2024-02-28 22:57:00,SystemResetWarning,0827.7,4.99,000.00,021.5,020.8,000.0,029.6,023.2,07.2,0000.0,0009.03,0003.29,0001.44
2024-02-28 22:58:00,SystemResetWarning,0827.7,5.00,000.00,021.5,020.8,000.0,029.6,023.2,07.0,0000.0,0009.22,0003.25,0001.42
2024-02-28 22:59:00,SystemResetWarning,0827.8,5.00,000.00,021.5,020.8,000.0,029.7,023.2,07.0,0000.0,0008.89,0003.21,0001.41
